RH
16 17 18 17 16 17 18 19 20 22 22 23 23 23 24 24 22 23 25 25 28 28 25 26 23 19 22 23 24 26 26 27 27 30 32 30 31 33 32 32 31 29 27 25 24 23 22 21 22 22 22 23 24 26 29 30 32 36 41 44 46 47 49 52 54 54 55 57 58 59 58 54 45 32 22 14 10 9 8 9 8 7 8 7 7 6
16 18 18 18 17 17 17 19 20 22 22 22 23 23 23 25 24 22 24 24 26 27 24 25 23 19 22 24 24 26 27 28 30 32 29 26 28 27 23 22 20 19 19 18 19 19 18 19 19 20 20 21 22 24 28 29 30 34 40 45 47 48 50 53 55 55 56 57 60 61 62 60 54 42 28 18 12 9 9 10 10 8 8 8 8 7
16 18 19 19 18 17 18 19 20 22 23 23 24 24 24 26 26 24 24 24 26 27 23 25 23 19 21 23 24 27 28 29 32 31 25 21 22 20 17 18 18 19 20 20 21 22 22 23 23 23 23 22 23 24 27 29 29 33 38 44 48 50 52 55 56 56 56 58 61 63 64 64 61 51 37 24 14 9 9 11 11 10 9 9 9 9
16 18 19 19 19 18 18 19 21 22 22 24 26 26 26 27 28 27 26 25 27 27 25 27 23 19 22 23 24 29 30 30 31 27 21 18 17 18 20 23 23 23 24 24 25 27 28 29 30 30 30 29 29 29 29 29 30 31 35 41 47 50 52 56 58 57 57 59 63 65 65 66 65 58 46 31 18 11 10 12 13 12 10 9 9 10
16 18 18 19 20 19 19 20 21 22 22 24 27 27 27 27 29 29 28 26 25 25 26 26 22 19 20 22 26 29 31 31 27 21 20 19 18 22 25 24 23 23 23 22 22 26 29 31 34 34 36 37 37 38 37 35 34 33 34 37 43 49 53 58 61 60 59 61 65 67 67 68 67 65 56 40 26 16 11 11 13 15 13 11 10 11
16 17 18 20 21 20 21 21 22 24 22 23 25 26 27 27 28 28 29 27 25 25 25 26 30 26 18 21 27 28 31 30 21 19 21 20 21 24 24 20 20 21 21 20 20 22 26 31 35 38 42 44 45 47 46 45 45 44 42 41 42 46 52 59 62 62 62 63 66 69 70 70 69 69 64 51 37 24 12 9 12 17 17 14 11 11
16 18 18 20 21 21 22 22 23 25 24 24 25 26 27 28 27 27 29 29 28 28 27 27 35 32 18 19 26 27 30 27 19 21 22 21 23 24 20 17 18 20 21 23 24 25 28 31 36 40 44 48 52 55 54 54 56 56 56 55 53 53 55 60 64 65 64 65 68 70 72 72 71 72 69 61 50 34 18 10 10 16 20 19 15 12
16 17 18 20 21 21 23 23 25 26 26 27 26 26 28 28 27 27 28 29 29 29 28 28 32 34 24 18 23 26 27 25 21 24 26 24 23 20 18 19 22 25 29 33 36 37 40 43 46 47 49 53 58 62 63 64 65 65 66 68 69 68 67 68 69 70 69 69 71 73 74 74 73 73 72 69 62 46 27 14 9 14 21 23 19 15
16 18 18 20 21 22 24 24 26 27 28 28 27 29 29 28 27 27 28 30 30 30 31 28 30 37 30 18 22 26 25 24 21 23 27 24 21 19 20 24 26 29 35 41 45 46 49 55 59 58 58 62 67 68 70 72 74 75 75 76 78 79 80 81 80 80 79 77 76 76 77 77 76 76 75 74 70 56 39 23 11 11 19 25 24 20
17 17 18 19 21 23 24 25 27 27 29 29 29 30 29 28 26 25 30 31 30 33 33 30 31 39 33 19 21 26 25 24 21 23 27 21 19 22 23 26 29 31 35 40 43 42 44 51 55 55 55 60 66 69 73 77 80 82 82 83 83 83 86 88 89 91 90 89 86 84 83 81 80 80 78 77 74 65 51 35 17 8 14 23 28 25
17 17 18 19 21 23 24 27 28 28 30 30 30 32 30 28 25 28 33 29 34 42 37 30 32 40 39 24 19 24 25 25 24 26 26 20 21 26 27 29 32 35 38 40 43 42 43 45 47 48 49 51 57 62 68 74 78 82 85 86 87 87 89 90 92 94 95 95 95 93 91 88 86 85 83 80 78 72 61 45 28 12 10 18 28 30
17 17 18 19 21 24 25 28 29 29 31 30 32 33 30 28 27 29 32 29 38 46 37 31 33 39 42 27 18 24 25 25 28 30 28 26 30 34 34 33 34 39 43 45 49 50 49 49 48 49 48 47 49 54 61 66 69 74 80 84 87 88 89 90 91 92 92 93 94 94 94 95 95 92 88 85 82 78 69 54 37 20 11 13 24 32
17 16 18 19 22 24 25 28 29 30 31 30 33 32 31 36 39 41 46 41 40 40 32 32 37 38 35 23 18 24 25 26 31 32 32 34 39 42 40 38 37 41 45 47 48 47 45 46 46 49 50 48 46 47 52 60 63 66 72 79 85 87 87 88 89 89 89 90 90 90 91 95 99 98 95 92 87 83 77 65 47 29 17 13 19 31
18 17 18 20 23 24 25 28 30 31 32 31 33 32 32 44 53 62 67 53 40 37 33 38 44 38 27 19 20 24 24 28 32 34 37 39 42 44 42 40 40 42 43 42 41 38 35 34 34 38 45 50 51 48 47 50 56 62 67 73 80 83 84 85 86 86 87 89 90 89 89 94 99 99 99 99 95 90 84 75 60 39 24 16 16 26
23 21 20 21 23 23 25 28 29 32 33 31 32 32 32 38 43 52 59 50 42 42 37 39 43 34 23 19 21 22 24 30 34 37 40 41 43 45 43 41 41 40 39 37 35 32 30 28 27 28 36 47 57 60 57 52 52 57 64 72 77 79 81 81 81 82 84 87 89 91 93 96 99 100 100 100 100 97 90 83 71 48 29 20 18 22
25 23 20 21 22 23 25 27 29 31 33 33 32 33 35 37 35 40 48 45 47 56 52 42 36 27 21 21 21 22 25 29 34 39 42 43 45 45 43 42 40 38 36 35 33 31 28 27 26 26 30 39 49 59 66 65 62 60 63 68 72 74 76 76 77 79 80 83 87 91 94 97 99 100 100 100 100 100 97 90 78 57 35 25 22 22
26 23 21 22 22 24 26 28 29 31 34 35 35 37 37 36 36 40 44 45 55 66 56 37 29 27 25 23 21 22 24 27 34 41 43 46 46 45 44 42 39 37 35 33 32 30 28 27 27 28 30 34 40 48 58 66 70 69 69 71 71 71 71 73 75 76 77 82 87 91 94 97 100 100 100 100 100 100 100 95 83 64 43 31 27 25
26 25 23 22 22 24 26 27 30 31 34 36 37 39 38 37 39 39 44 54 68 77 62 36 28 31 30 28 24 22 24 29 36 42 44 45 45 45 43 40 38 36 35 34 32 31 30 29 30 31 31 33 37 42 48 55 62 67 71 74 76 77 77 76 76 77 79 83 88 92 95 97 100 101 100 100 100 100 100 99 90 73 53 37 30 28
28 27 25 23 22 24 26 27 29 30 32 36 38 39 38 39 41 40 45 54 62 75 72 46 32 32 31 30 27 26 28 33 40 44 45 45 45 45 42 39 38 37 35 34 32 31 31 33 34 33 32 32 34 39 42 46 49 53 58 62 67 72 77 80 80 81 83 85 88 91 94 97 99 100 101 101 100 100 100 100 96 84 64 46 36 31
29 30 28 25 23 25 26 27 29 30 33 37 39 41 40 41 43 42 46 49 52 69 78 64 50 40 31 29 30 31 33 37 44 47 46 46 46 44 42 39 38 38 36 35 34 34 33 36 37 36 33 33 35 38 40 41 43 46 48 51 53 57 65 74 81 83 84 86 87 89 90 94 97 98 101 101 100 100 100 100 100 91 75 59 46 35
30 31 29 26 24 25 26 27 28 29 34 39 40 43 43 43 45 45 46 44 46 64 81 84 71 43 28 32 33 32 35 40 47 48 47 48 46 43 42 41 40 39 38 37 36 36 38 39 38 33 32 33 34 35 34 34 37 40 43 45 47 49 55 67 77 81 83 86 87 88 88 91 95 98 101 100 100 101 100 100 101 95 84 71 55 40
30 31 30 27 24 24 24 25 27 29 33 37 39 42 42 44 46 50 56 50 43 52 63 76 72 43 29 35 33 33 38 43 49 49 47 47 46 44 42 41 42 41 39 38 38 40 43 42 36 29 28 30 31 30 28 28 30 32 34 38 42 44 51 66 76 80 84 87 87 87 89 91 94 98 101 100 100 101 100 100 101 99 92 79 61 45
30 31 31 28 25 25 24 24 26 30 32 33 36 38 39 43 43 49 58 52 47 50 48 62 75 52 32 35 35 36 42 46 49 50 48 48 45 44 43 40 40 40 39 41 44 48 49 42 35 30 29 31 31 29 28 29 31 33 35 38 41 42 47 61 73 82 89 91 91 90 90 92 95 98 100 101 100 100 100 100 100 101 97 84 67 53
31 32 32 30 27 25 23 22 26 30 31 32 36 38 40 44 43 46 52 49 51 55 50 63 78 54 34 38 38 40 48 51 51 50 49 48 45 44 42 40 41 41 41 46 52 54 50 42 37 36 35 34 32 31 31 34 36 38 39 41 44 47 50 57 66 78 90 95 96 95 94 94 95 98 99 100 100 100 100 100 99 101 99 87 72 60
31 31 33 34 35 34 31 28 26 28 31 34 36 39 41 44 47 49 52 53 57 56 52 62 67 47 37 42 42 46 53 53 51 52 51 49 46 44 42 42 44 45 47 53 58 56 50 46 44 42 39 38 36 35 36 38 39 38 38 38 40 45 51 59 66 75 88 99 100 99 98 97 96 98 100 100 100 100 100 100 99 100 100 91 76 65
31 29 30 35 40 44 42 35 30 30 33 34 35 38 40 44 49 52 54 59 61 58 56 59 56 44 42 46 47 52 57 55 55 55 52 49 47 46 46 49 53 57 62 66 65 60 54 51 48 44 42 41 41 41 42 43 43 41 38 36 35 36 40 53 69 77 82 91 97 99 100 99 98 100 101 100 100 100 100 100 99 100 100 94 81 71
31 28 28 30 32 35 34 32 33 36 37 37 36 39 41 44 47 51 58 61 58 58 60 56 51 51 50 50 53 57 59 61 60 56 52 50 48 47 51 58 66 74 79 77 71 66 61 56 50 45 45 45 45 46 48 48 48 47 44 41 38 34 32 41 61 78 82 82 87 95 99 100 100 101 101 101 100 100 100 100 99 100 100 96 87 75
31 28 27 27 26 27 29 30 34 38 38 38 39 40 42 46 48 49 53 52 52 60 63 54 53 60 57 52 55 60 62 63 60 56 54 50 47 50 55 62 70 77 79 75 73 74 70 62 54 49 48 49 50 52 53 54 56 55 53 51 46 42 37 34 45 71 91 92 88 92 98 101 101 101 100 101 100 100 100 100 99 100 100 99 92 80
31 29 27 26 25 26 29 31 33 37 38 39 42 44 46 48 49 49 50 49 54 64 64 57 61 65 59 54 57 60 63 64 59 56 53 48 49 55 61 65 70 73 74 75 78 82 76 65 57 54 53 54 57 59 61 62 63 62 61 59 54 48 44 39 38 54 84 100 97 92 95 98 99 101 101 100 100 101 100 100 100 100 101 100 95 84
32 30 28 28 27 26 30 32 34 37 40 41 44 47 50 52 53 55 55 55 59 64 63 64 67 62 54 57 60 60 63 63 59 55 50 47 50 60 68 73 76 77 79 84 88 88 82 72 63 58 58 62 66 69 72 72 71 69 67 65 61 53 47 44 41 43 62 89 99 94 91 92 95 100 101 100 100 101 100 100 100 99 100 101 97 87
32 32 30 31 31 29 30 34 36 39 42 44 46 49 53 56 60 63 64 62 64 65 63 66 66 55 50 58 63 63 63 62 60 58 49 41 48 65 77 83 86 87 90 94 94 91 85 79 72 66 65 71 76 80 82 81 79 77 75 72 68 60 51 45 45 43 47 70 94 98 93 94 97 99 101 100 100 101 100 100 100 100 100 101 98 89
31 33 33 36 38 34 32 35 38 40 42 44 47 51 57 63 69 71 69 65 64 63 61 63 61 54 55 64 64 61 57 53 53 57 56 56 67 82 91 94 96 97 97 97 95 93 90 87 84 82 82 84 88 90 91 90 88 84 82 79 73 66 56 47 46 45 43 57 87 101 98 98 101 100 100 100 100 100 100 100 100 100 100 101 99 91
32 35 36 42 45 38 34 39 39 39 43 46 49 56 64 70 74 73 67 62 59 60 61 60 58 58 64 66 60 53 46 39 42 56 72 84 91 94 96 98 99 98 97 98 98 97 95 94 95 96 97 97 95 94 92 90 88 84 81 79 74 68 61 51 45 46 46 57 84 102 100 99 101 100 100 101 100 100 100 100 100 100 100 101 100 93
34 38 41 47 50 44 39 41 40 40 47 52 55 65 74 74 72 71 67 60 57 58 60 60 62 67 67 61 54 48 40 37 49 71 88 96 99 99 99 100 99 98 98 99 99 99 100 101 100 98 97 94 90 86 83 79 77 76 73 73 71 67 64 57 48 47 55 68 86 99 101 99 100 100 100 100 100 100 100 100 100 100 100 100 100 94
36 40 44 48 53 51 45 44 48 50 52 54 59 68 73 70 68 68 64 58 56 59 60 63 69 68 60 52 49 50 51 55 67 86 97 99 100 101 100 100 100 100 101 100 99 99 99 96 92 91 91 89 84 78 72 65 62 62 62 62 64 64 64 62 54 53 67 82 92 98 101 100 100 100 100 100 100 100 100 100 100 101 101 100 100 96
37 41 46 50 53 53 51 53 56 54 52 56 63 66 66 65 66 68 65 59 59 65 68 70 69 60 51 49 54 68 80 79 78 90 100 100 100 101 100 101 101 100 100 99 96 95 94 92 95 98 95 93 90 78 60 49 48 50 50 52 55 59 65 68 64 65 79 94 99 100 100 100 100 100 100 100 100 100 100 100 100 101 101 100 100 98
40 43 47 53 56 57 60 62 59 54 53 58 65 69 70 70 72 76 76 66 61 71 76 71 60 50 49 59 72 88 99 92 85 93 101 100 99 101 100 98 96 96 95 90 84 79 76 80 91 92 86 90 98 86 64 53 50 49 50 54 59 65 73 80 82 85 92 99 101 100 100 100 100 100 100 100 100 100 100 100 101 101 101 101 101 99
44 46 49 56 61 64 68 70 72 72 65 58 65 73 75 74 75 79 79 69 67 74 72 61 57 59 66 79 90 98 101 98 96 98 100 101 98 95 94 90 85 82 76 68 62 57 56 66 77 75 71 82 95 90 77 68 63 61 66 74 80 85 90 94 97 98 99 100 100 100 100 100 100 100 100 100 100 100 100 100 101 101 100 100 102 100
46 48 52 59 65 69 73 76 78 76 64 57 65 71 72 75 77 76 74 70 69 69 62 62 76 87 92 96 99 99 100 100 100 99 98 97 92 87 85 78 69 62 56 54 56 54 55 65 71 68 73 89 96 87 79 76 76 78 84 91 95 99 100 99 100 100 100 100 100 100 100 100 100 100 100 100 100 100 100 100 100 101 100 100 101 101
48 51 56 62 64 67 73 76 73 64 59 64 70 71 74 77 73 74 80 77 65 54 55 75 95 99 99 100 99 100 102 100 100 98 92 87 83 78 71 63 58 60 64 67 67 64 65 70 72 75 87 97 91 78 75 85 92 92 92 94 97 101 101 99 99 100 100 100 100 100 100 100 100 100 100 100 100 100 100 100 100 100 100 100 101 101
52 55 59 63 65 66 70 75 74 67 64 70 75 76 77 73 69 81 93 88 73 56 53 74 95 98 100 102 100 99 98 93 92 90 85 83 79 68 58 60 73 81 77 66 60 60 64 66 67 73 79 78 73 73 84 98 103 99 97 97 99 101 100 98 99 101 101 101 100 100 100 100 100 100 100 100 100 100 100 100 100 100 100 100 101 101
58 60 64 70 71 72 77 81 79 73 70 76 82 80 73 72 82 93 86 73 74 72 63 71 90 98 97 95 93 91 89 87 88 89 88 85 74 61 60 69 80 82 68 49 42 48 53 54 57 62 65 67 74 85 95 101 102 100 100 99 98 98 97 97 99 101 101 102 101 100 100 100 100 100 100 100 100 100 100 100 100 100 100 100 101 102
63 66 74 79 77 80 87 88 83 81 80 82 81 70 66 78 92 88 64 45 52 69 72 70 77 86 90 91 90 89 90 92 94 94 91 78 59 50 54 56 55 58 55 47 44 50 55 58 61 64 67 72 82 91 98 101 101 100 99 98 98 97 96 98 100 100 100 101 101 100 100 100 100 100 100 100 100 100 100 100 100 100 100 100 101 102
73 80 85 87 85 90 94 88 84 84 82 77 69 58 59 70 71 62 52 45 47 61 69 65 64 75 89 96 96 93 94 97 96 89 78 59 41 36 39 38 39 48 52 50 52 56 59 63 66 67 70 76 85 94 100 102 102 100 99 100 101 99 99 101 101 100 101 101 100 100 100 100 100 100 100 100 100 100 100 100 100 100 100 100 101 102
80 90 95 93 91 92 88 81 79 80 73 62 53 42 37 40 42 47 56 63 65 67 69 71 77 87 95 99 100 98 96 94 86 71 55 42 35 36 39 40 44 48 50 50 52 55 59 64 69 72 74 77 84 91 96 99 102 102 100 100 101 101 101 101 100 100 101 101 100 100 100 100 100 100 100 100 100 100 100 100 100 100 100 100 101 101
87 92 94 88 83 80 74 71 72 69 56 42 34 31 32 35 39 41 43 48 57 68 78 89 97 100 100 100 99 98 93 82 66 50 40 37 39 41 43 44 44 44 46 50 53 57 62 66 69 72 71 72 77 86 93 99 102 101 99 100 100 100 100 100 100 100 100 100 101 100 100 100 100 100 100 100 100 100 100 100 100 100 100 100 102 100
88 87 83 79 76 72 65 61 57 47 35 26 24 31 39 40 40 44 50 59 71 84 95 100 100 100 101 99 96 91 80 64 48 37 36 40 43 43 44 45 45 46 50 53 56 58 59 60 63 66 68 70 76 85 93 100 101 100 100 101 100 100 100 100 99 100 100 101 101 100 100 100 100 100 100 100 100 101 100 100 100 100 99 100 102 99
82 80 75 71 69 65 57 49 38 27 21 22 27 32 31 30 40 61 81 92 96 97 99 99 99 101 100 96 91 80 61 45 37 35 39 44 45 45 45 45 44 43 42 40 37 37 36 37 42 47 52 58 65 74 84 94 100 101 100 100 101 101 101 100 100 101 102 102 101 100 100 100 100 100 100 100 100 100 100 100 100 100 100 101 101 99
82 76 70 65 61 56 44 30 22 19 18 23 34 39 37 41 56 72 85 94 99 100 101 100 99 100 100 97 88 67 44 34 35 38 43 47 45 41 39 35 31 26 21 17 16 16 16 18 20 24 30 38 46 54 66 79 92 99 101 102 102 100 101 102 101 100 102 103 102 101 100 100 100 100 100 100 100 100 100 100 100 100 100 100 101 98
76 67 60 54 47 39 30 28 40 50 41 31 32 37 43 58 73 78 82 91 97 99 101 99 95 92 92 91 78 54 36 33 38 42 45 43 36 30 25 19 15 12 10 9 9 9 9 10 11 13 17 21 26 35 48 65 80 90 95 99 101 100 101 101 99 98 101 103 102 101 100 100 100 100 100 100 100 100 100 100 100 100 100 100 101 98
64 53 43 35 28 25 25 34 56 67 54 34 26 28 42 62 72 75 86 97 100 100 102 100 98 94 82 66 52 40 34 37 43 44 38 29 21 16 12 10 8 8 7 7 6 7 7 7 7 8 9 11 14 21 34 52 67 77 84 92 99 102 102 101 98 97 99 101 101 101 100 100 100 100 100 100 100 100 100 100 100 100 100 101 102 97
Wind_Speed
14 14 13 15 15 15 14 14 15 16 17 19 21 22 23 24 21 21 22 23 25 29 29 29 26 22 21 16 13 15 11 8 8 7 14 22 21 19 21 22 24 26 27 29 30 31 32 33 34 34 35 35 36 36 36 36 36 35 35 35 35 37 38 39 40 41 41 42 42 42 42 42 41 42 42 41 40 39 37 37 36 35 34 33 32 31
14 13 13 15 15 15 15 14 16 17 18 21 22 23 23 22 22 22 21 22 27 30 30 28 23 21 17 11 13 14 8 8 10 10 17 22 20 21 23 24 26 27 28 30 30 31 32 33 34 35 35 36 36 36 36 36 36 36 35 35 35 36 38 38 39 40 41 41 41 42 42 42 41 41 41 41 40 39 38 37 37 36 35 34 32 31
14 12 14 16 16 15 15 15 17 17 19 21 21 23 22 21 23 20 19 24 27 30 30 25 24 20 10 9 14 9 5 9 11 12 19 21 20 22 24 26 28 29 30 31 31 32 33 34 34 35 36 36 36 36 36 37 37 37 36 36 36 37 37 38 39 40 40 41 41 41 42 42 41 40 41 40 40 39 38 37 37 36 35 34 33 32
13 13 15 16 16 16 16 16 17 17 19 21 22 22 20 20 22 21 23 25 24 27 26 24 25 16 7 12 13 5 6 10 11 15 19 20 21 24 26 30 31 32 33 33 33 33 34 34 35 35 36 36 37 37 37 38 38 37 37 37 37 37 37 37 38 39 39 40 40 41 41 41 41 40 40 40 40 40 38 37 37 37 36 35 34 33
13 13 16 17 16 16 16 16 18 18 19 21 22 21 20 20 21 22 26 26 24 22 19 23 23 10 7 14 10 6 8 10 13 17 19 20 22 25 30 33 33 34 34 34 35 34 35 36 36 36 37 37 37 37 38 38 38 38 38 38 38 37 37 37 38 39 39 39 40 40 41 41 41 40 39 39 39 40 39 37 37 36 36 35 34 33
13 14 16 17 17 17 16 17 18 18 20 22 21 20 20 21 21 23 26 26 24 18 16 21 15 6 12 13 7 7 7 9 16 19 19 20 22 27 33 34 33 34 34 35 36 36 37 37 38 38 38 38 38 38 38 38 38 39 38 38 38 38 37 37 38 38 39 39 39 40 41 41 41 40 38 38 39 39 39 38 37 37 36 36 35 34
12 15 17 16 17 17 17 17 18 18 20 22 21 20 20 20 21 24 25 23 20 15 18 18 6 7 18 13 6 8 7 10 17 19 21 21 21 28 32 32 33 34 35 36 37 38 38 39 39 40 40 40 39 38 39 39 39 39 39 39 38 38 38 37 38 39 39 39 39 40 41 41 41 41 39 38 38 39 39 38 37 37 37 37 36 34
14 16 17 17 18 17 17 17 17 18 20 22 22 21 20 20 22 24 23 19 17 17 18 15 5 8 16 13 8 9 7 11 18 21 23 22 22 27 30 32 34 35 37 38 38 39 39 39 40 41 41 41 40 40 40 39 39 39 39 40 39 39 38 38 39 39 39 39 40 40 41 41 41 41 40 39 38 37 38 38 37 37 37 37 37 36
15 16 18 18 18 17 17 17 18 18 19 22 23 22 20 21 23 23 19 15 15 16 12 10 5 6 14 15 8 8 9 11 18 23 23 22 23 27 30 33 34 35 36 36 37 39 38 39 39 40 42 41 40 40 40 40 40 40 40 41 40 40 39 39 40 40 40 40 41 41 42 42 42 41 41 40 38 37 37 37 37 37 37 37 38 37
15 17 19 19 17 17 16 17 18 17 18 22 23 21 20 22 22 19 15 12 12 12 7 6 4 3 12 14 5 7 12 11 18 23 20 20 23 28 31 33 34 35 35 36 37 38 39 39 40 41 43 42 41 40 40 40 40 41 41 41 42 41 40 41 41 41 41 41 42 43 43 44 43 43 42 42 40 37 37 37 36 36 36 37 37 38
15 18 19 18 16 16 16 18 18 17 18 21 21 21 21 21 20 15 12 9 7 6 4 5 4 3 7 9 5 9 11 11 18 20 18 19 22 27 31 33 35 36 36 37 38 39 40 41 41 43 44 44 43 43 41 40 40 41 41 42 43 42 42 42 42 42 42 42 43 44 45 45 45 44 43 43 41 39 37 36 36 36 36 36 36 38
16 18 18 17 15 15 17 18 17 17 18 19 20 21 19 16 13 8 6 3 1 3 4 6 7 6 8 9 8 9 8 10 17 18 18 22 26 29 32 34 36 36 38 39 40 41 41 42 43 43 45 45 44 45 44 42 42 41 41 42 43 42 42 43 43 43 43 43 44 45 46 46 46 46 45 44 43 40 38 37 36 36 36 35 36 37
18 17 16 15 14 14 16 17 18 19 17 19 22 19 13 9 7 3 2 1 3 5 6 7 7 10 17 16 9 6 8 13 16 18 21 26 31 33 34 37 39 39 40 42 42 44 45 46 47 46 46 45 44 44 45 45 44 43 42 42 42 42 42 43 43 43 44 44 44 45 46 47 47 47 46 45 44 42 40 37 37 36 35 35 35 36
14 14 14 13 12 14 17 18 19 18 17 21 21 13 7 3 3 3 3 2 4 7 11 12 9 12 17 14 8 6 11 16 17 20 25 29 32 34 35 38 41 42 44 46 47 48 49 49 49 49 48 47 46 45 44 45 46 46 45 44 43 42 42 42 43 43 44 45 45 46 46 47 47 46 46 46 45 44 42 39 37 37 36 35 34 35
10 11 11 11 13 17 20 20 19 18 19 20 15 10 8 2 1 4 3 2 4 8 16 16 9 8 12 16 16 10 11 17 20 24 28 30 33 34 35 38 42 46 47 49 52 52 53 53 51 50 48 47 47 47 46 46 46 47 47 46 45 44 42 43 43 44 45 46 45 46 46 46 46 46 46 46 46 45 43 40 38 36 36 35 34 34
9 9 10 13 18 21 21 19 18 18 16 14 13 13 11 7 6 7 7 8 7 6 11 12 12 16 22 29 23 10 11 19 23 28 30 31 33 34 35 39 44 48 50 52 54 56 56 55 53 51 48 48 47 47 47 46 46 47 47 47 47 46 45 45 44 44 45 46 46 46 46 46 46 46 46 46 46 46 44 42 38 37 37 36 34 34
8 9 12 18 21 20 18 17 17 17 15 14 17 16 13 11 9 8 8 9 4 3 6 10 19 28 27 27 17 7 11 21 24 30 32 31 34 35 37 42 46 50 53 55 57 58 58 57 54 51 49 48 47 46 46 45 45 46 46 47 48 48 48 47 46 45 45 45 45 46 46 46 46 46 46 46 46 47 46 43 39 37 37 36 35 34
13 15 17 19 19 18 17 18 19 19 18 19 19 16 13 10 7 6 5 3 1 2 5 9 22 31 23 17 14 10 14 21 26 31 33 33 35 37 40 45 49 52 55 57 59 59 58 57 55 53 50 48 46 45 45 45 45 44 44 45 46 47 48 48 48 48 46 45 44 45 46 46 46 46 46 46 46 47 47 43 40 38 37 37 35 34
15 16 16 16 17 17 19 20 20 20 20 20 18 16 13 8 7 6 3 3 3 2 4 7 17 29 26 15 15 16 17 25 32 33 34 35 36 39 46 51 53 56 58 60 61 60 58 57 55 53 51 49 46 45 45 46 46 46 45 45 45 45 45 46 48 48 47 45 44 44 46 47 46 46 46 46 45 46 46 44 41 39 37 37 36 34
15 13 12 16 19 20 22 21 19 21 21 20 19 17 15 11 10 9 6 5 3 2 6 4 7 20 24 19 22 23 22 29 35 36 37 36 37 45 52 55 57 59 60 61 61 60 59 57 56 55 53 50 48 47 46 46 45 46 46 46 46 46 45 45 46 47 47 46 45 46 47 47 46 46 46 45 45 46 46 44 43 40 37 37 36 35
16 13 13 19 23 22 22 21 21 24 23 21 21 18 16 13 11 11 11 12 9 3 2 0 5 22 31 30 30 24 24 33 37 37 38 36 40 50 56 58 59 60 60 61 61 60 59 58 58 57 54 52 51 49 47 46 44 44 44 44 45 46 46 45 45 45 46 46 46 46 46 46 46 46 46 45 44 45 45 45 44 41 38 37 36 35
16 15 18 23 24 23 24 24 24 23 21 20 20 18 17 15 13 10 8 13 14 9 9 4 7 31 46 39 26 20 28 36 35 36 38 38 45 55 58 59 60 60 61 61 61 60 60 60 60 58 56 55 53 52 49 47 44 43 42 42 43 44 45 45 45 45 46 46 47 46 45 45 46 45 45 44 44 44 45 45 44 42 39 36 35 35
16 17 21 24 24 23 23 23 19 16 16 17 18 18 17 16 17 13 8 11 12 13 18 10 6 33 50 32 17 24 35 35 34 35 37 41 52 59 60 61 61 61 62 61 60 60 60 60 60 59 58 56 55 53 51 48 46 44 42 41 42 43 44 45 45 45 46 47 48 47 46 45 44 44 44 44 44 44 45 45 44 42 39 36 35 35
15 16 20 25 27 24 20 19 16 14 16 18 19 20 18 19 21 19 19 22 16 15 20 9 6 29 39 23 20 32 36 34 34 33 36 48 59 61 61 62 62 62 62 61 60 60 60 61 60 59 58 57 56 54 52 51 49 47 46 44 43 43 43 44 45 45 45 46 47 48 47 45 43 42 43 43 43 43 44 44 43 42 39 37 36 35
15 16 20 22 20 16 14 14 17 20 23 24 24 24 23 23 22 21 23 24 18 19 20 9 12 33 36 30 35 37 34 36 35 33 43 57 62 62 63 63 62 63 63 61 61 62 62 62 61 60 59 58 57 55 54 53 52 51 50 47 46 45 44 44 44 44 44 43 45 46 46 45 43 42 42 43 43 42 42 43 43 41 39 37 36 36
18 20 22 17 10 8 10 14 19 25 28 29 29 28 28 28 26 25 23 19 16 18 18 18 27 46 46 41 41 38 36 39 36 40 55 62 63 64 64 62 62 62 61 61 62 63 64 64 63 61 60 58 57 56 55 55 54 54 53 50 49 48 47 45 44 44 43 43 43 44 44 44 43 41 41 42 42 41 41 42 43 41 39 37 37 36
20 23 24 22 21 21 23 24 26 28 29 30 30 28 27 27 27 26 23 24 25 24 26 31 37 47 50 47 43 41 39 39 41 53 63 65 65 66 63 61 61 60 60 61 63 64 64 64 64 62 60 58 57 56 56 56 56 56 55 54 52 51 50 48 46 43 42 42 42 41 41 42 42 41 41 42 42 40 39 41 43 42 39 37 37 37
21 24 24 26 29 30 29 29 28 28 29 29 26 23 21 21 23 24 24 28 29 25 28 34 36 40 48 49 45 42 41 42 51 62 67 67 67 67 64 63 62 62 63 63 63 64 63 63 63 61 60 58 57 58 58 58 58 58 58 57 56 54 53 51 48 44 41 40 41 40 39 40 41 41 41 42 41 39 38 40 42 41 39 37 37 37
20 24 26 27 30 30 29 28 27 27 26 24 23 23 22 19 19 21 20 22 24 24 27 37 40 41 46 48 45 43 42 48 60 65 66 67 67 65 64 65 66 66 66 65 65 64 63 62 62 60 59 59 59 60 60 60 61 61 60 60 59 58 55 53 51 47 42 39 39 40 40 40 41 41 40 41 40 38 37 38 40 40 38 37 37 36
20 23 26 27 29 31 28 26 26 23 23 26 27 23 17 12 12 15 17 17 21 26 32 39 42 45 47 45 44 44 46 56 64 65 65 67 66 65 65 65 67 67 66 65 64 63 63 62 61 59 59 59 59 60 61 61 62 63 63 63 61 60 58 56 54 51 46 41 39 40 41 41 40 40 39 39 39 37 37 37 38 38 37 37 37 36
20 23 25 26 29 29 26 24 24 24 28 30 22 12 10 11 13 16 20 23 26 32 37 39 43 49 48 42 43 48 55 62 64 63 66 68 67 66 65 65 66 66 65 64 63 64 64 63 62 60 60 59 59 59 60 62 63 64 64 64 63 61 60 58 55 53 50 44 40 40 41 41 41 39 38 38 38 37 36 36 36 36 36 36 37 36
22 23 24 23 25 27 26 23 23 28 31 22 10 8 13 17 20 22 25 27 31 37 41 41 45 48 43 41 50 59 62 64 63 63 65 66 65 64 64 64 64 64 64 63 64 65 66 66 65 62 60 60 60 60 61 62 63 64 64 64 64 62 60 58 56 54 52 47 42 39 40 41 41 39 37 37 37 36 35 35 35 35 35 36 37 36
22 22 22 19 19 25 25 23 27 29 21 8 8 13 17 21 26 29 29 30 32 36 40 43 43 39 39 48 60 65 66 67 67 65 64 63 63 63 63 63 63 63 63 62 64 65 67 67 65 62 61 61 61 62 64 64 65 66 66 66 64 63 61 58 56 54 52 47 42 39 39 40 40 38 36 36 37 36 34 33 34 34 34 36 36 35
18 18 20 17 15 21 25 27 27 19 7 4 10 15 21 26 31 34 34 33 34 37 39 37 31 31 43 57 62 63 66 67 65 62 61 61 61 60 62 63 62 62 62 63 66 68 68 66 65 64 64 64 65 67 68 69 70 69 68 67 65 63 61 59 57 54 50 45 41 39 37 38 39 37 36 36 36 34 32 32 32 33 34 35 36 35
17 17 18 16 16 21 25 23 14 6 7 10 10 15 24 28 31 37 38 36 37 39 32 23 23 38 54 60 59 61 64 63 62 62 60 58 58 58 60 60 60 61 64 66 68 68 67 67 68 68 67 67 69 70 71 72 71 69 68 67 65 63 61 59 57 53 49 44 40 39 38 37 38 37 36 37 36 33 30 30 30 31 33 34 35 34
16 16 16 17 17 18 17 12 6 10 15 10 7 17 26 27 33 39 41 41 38 25 16 19 36 54 60 60 59 60 60 61 64 61 56 54 55 56 57 58 60 61 63 66 68 67 68 69 67 66 66 68 68 69 71 73 72 71 70 67 65 63 60 58 56 52 47 43 40 39 39 38 37 37 37 38 35 30 28 28 29 31 31 32 34 34
15 16 17 16 13 12 13 13 14 16 10 3 9 23 28 32 38 39 43 48 33 10 14 36 55 62 61 60 60 58 58 63 65 61 55 54 57 58 59 62 64 64 65 67 69 69 69 68 65 64 68 69 66 67 75 80 79 76 73 68 64 61 58 55 53 49 45 41 39 39 39 39 39 38 39 38 33 28 27 28 29 30 30 32 32 32
16 17 16 14 11 12 14 14 13 10 3 4 14 25 28 35 40 40 46 43 22 14 34 55 60 60 60 59 58 58 59 62 64 63 60 61 64 65 66 66 67 68 69 69 69 69 68 65 65 67 69 67 65 70 80 85 83 78 72 65 59 56 56 55 52 48 45 41 39 39 38 39 40 39 39 37 31 27 27 27 28 28 29 31 31 31
18 17 15 13 12 13 13 10 5 4 5 9 19 26 30 37 44 44 39 30 25 37 54 58 55 55 55 54 55 57 56 57 62 66 66 66 67 67 66 67 68 68 68 67 66 67 66 64 66 67 65 63 68 77 84 86 80 73 66 59 54 51 55 58 54 48 45 43 41 40 39 39 40 40 39 35 29 27 27 26 27 27 29 30 31 30
18 15 13 11 11 12 13 10 8 10 12 15 22 28 33 41 46 38 25 27 46 59 58 54 53 50 49 51 54 54 53 55 61 65 65 64 64 64 65 67 67 65 64 64 65 66 65 63 65 64 62 66 75 83 86 82 73 66 61 57 51 48 54 60 57 50 46 44 42 41 39 38 39 40 39 34 29 27 27 26 25 26 28 30 30 28
13 12 11 10 11 13 12 12 15 16 14 15 23 31 39 44 42 31 25 39 56 60 56 55 52 49 50 52 53 54 55 55 57 59 60 60 61 64 65 64 62 60 62 65 66 67 67 68 69 69 70 75 81 83 80 73 67 63 58 52 46 47 55 61 57 50 47 45 42 41 40 38 38 39 38 34 29 27 26 24 24 26 27 29 29 27
11 11 9 10 12 13 13 15 16 13 11 18 29 38 42 41 37 34 41 50 52 52 55 55 50 49 51 51 52 54 54 52 53 54 56 58 62 65 64 61 60 60 62 66 69 69 72 75 75 76 77 77 76 74 71 66 63 60 53 46 47 53 59 61 56 51 48 45 42 41 40 39 38 37 36 33 30 28 25 23 23 25 26 28 28 26
11 10 8 11 14 13 12 12 10 10 18 29 38 43 42 38 35 41 50 54 53 52 54 54 53 51 50 50 52 52 50 50 51 53 56 61 64 64 62 62 64 64 64 68 71 71 72 73 73 73 73 71 69 68 66 62 60 57 52 51 55 60 62 60 56 51 48 44 41 41 40 39 38 36 34 32 30 28 24 22 22 24 26 27 26 24
11 9 10 13 13 11 11 12 12 17 28 36 40 44 43 39 39 46 51 54 54 53 52 54 54 50 47 48 50 49 49 50 52 55 60 64 65 64 64 66 68 68 67 69 70 68 68 68 69 69 68 66 65 64 62 60 58 56 56 57 59 61 60 57 54 51 47 43 41 41 40 38 37 34 31 30 29 27 23 20 21 23 24 25 25 23
8 8 11 13 12 13 18 21 23 27 34 38 41 45 45 44 46 49 49 49 50 50 49 49 48 45 44 46 47 49 50 52 55 60 63 63 63 64 66 68 68 67 67 67 66 66 66 66 66 66 65 64 62 61 60 59 57 56 57 57 58 58 57 56 53 50 47 43 41 40 39 37 35 32 29 27 27 26 23 20 20 22 23 24 23 22
8 9 11 15 18 21 22 23 27 33 38 42 44 45 46 48 50 51 51 50 48 46 43 42 42 43 44 44 46 49 52 55 60 63 62 61 62 64 66 66 65 64 65 65 65 66 65 64 63 63 64 63 63 62 61 60 57 56 56 56 57 57 56 55 52 49 45 43 40 39 38 35 32 29 26 25 26 25 22 19 19 21 22 22 21 20
10 12 15 19 24 27 28 29 34 40 44 46 47 46 48 49 49 48 48 47 44 41 40 40 41 42 43 45 47 51 56 60 62 62 62 63 64 65 65 64 64 64 65 64 64 63 63 62 62 63 64 64 63 62 61 60 58 57 56 57 57 56 54 52 50 46 43 40 38 37 36 32 29 26 24 23 25 24 21 18 18 19 20 20 20 19
14 17 22 26 28 31 34 37 42 46 48 47 47 48 51 51 49 46 43 41 41 41 40 40 39 41 45 49 53 57 61 61 61 62 65 65 65 64 63 62 63 63 62 61 61 61 61 62 62 62 63 63 62 61 60 59 59 58 58 58 58 56 53 50 48 44 40 37 36 35 33 30 27 23 21 22 24 23 20 18 18 19 19 19 19 18
18 22 27 31 34 36 39 44 49 51 51 49 47 49 51 50 48 47 45 44 43 42 40 40 41 45 49 53 57 60 61 60 61 64 65 64 62 61 60 60 60 60 59 60 60 61 61 61 61 61 62 61 61 60 59 59 59 59 59 59 57 54 52 49 46 41 37 35 34 33 31 29 25 21 19 20 22 22 19 18 17 18 18 18 18 17
22 26 31 36 40 43 45 47 47 48 50 51 51 51 50 47 47 48 48 46 43 40 40 44 48 51 53 56 58 60 59 60 62 62 61 60 59 58 59 59 59 58 59 60 60 60 61 60 60 61 60 60 60 59 59 59 59 59 59 57 55 52 49 47 44 39 35 33 32 31 30 28 23 19 17 19 22 22 19 18 17 17 17 17 17 16
27 32 36 40 43 45 46 46 43 43 47 51 51 50 48 46 48 50 48 43 41 41 44 48 51 54 56 56 57 57 58 59 60 59 57 56 56 56 57 58 58 59 59 59 60 60 60 60 60 59 59 60 60 59 58 58 58 59 59 57 54 50 47 45 43 39 35 32 31 29 29 27 22 17 16 18 21 21 20 17 16 16 17 17 16 15
Wind_Direction
344 341 338 337 334 328 321 315 317 322 327 329 328 328 330 329 332 332 325 323 322 321 324 327 328 335 338 331 327 331 326 322 326 329 341 348 350 349 347 345 341 341 341 341 341 340 340 340 338 337 336 334 333 332 330 328 327 329 330 331 332 333 334 335 334 334 333 331 329 327 326 324 322 319 316 313 311 307 304 301 301 302 302 304 305 306
340 335 332 332 329 324 319 316 317 319 324 329 328 328 330 328 328 330 327 326 325 321 323 326 329 337 339 334 333 329 316 331 340 338 343 349 352 352 350 348 346 346 345 345 345 343 342 342 340 339 338 336 335 333 330 328 328 329 328 329 330 331 333 334 333 333 333 331 329 327 325 324 323 320 317 314 310 307 302 299 298 298 299 301 302 303
336 330 329 328 324 322 317 316 317 317 323 330 329 328 328 326 326 328 327 327 325 321 322 324 329 338 349 341 335 328 309 336 349 347 346 351 354 353 352 350 349 349 348 347 347 345 343 342 340 339 338 336 335 334 331 330 330 329 328 327 328 330 331 331 331 332 333 332 330 327 325 324 322 320 317 314 311 307 302 297 295 295 296 298 300 301
332 326 326 326 322 318 314 315 315 313 322 330 329 326 325 326 326 325 326 328 325 320 318 320 328 337 357 344 339 338 324 341 359 351 348 352 355 357 357 355 352 350 349 348 347 345 342 342 340 338 337 335 335 334 332 331 331 330 328 327 327 328 329 329 329 330 332 332 330 327 325 323 322 320 318 314 310 307 303 297 293 292 293 295 297 298
326 323 324 322 319 315 311 313 313 311 321 330 328 324 323 325 325 323 325 327 324 319 315 322 329 332 344 342 338 341 337 349 1 353 350 351 353 359 359 357 354 351 349 347 346 345 343 341 340 338 337 335 335 334 331 331 331 330 328 327 326 326 326 327 326 328 330 330 329 327 325 323 322 320 318 314 311 308 304 299 293 290 290 291 294 295
322 322 322 318 316 312 309 311 313 311 318 327 327 323 323 324 324 324 325 324 322 317 316 328 336 318 331 341 329 335 350 356 358 355 351 349 352 358 357 355 353 350 348 346 345 344 342 341 339 338 336 334 334 333 330 330 329 328 327 326 325 324 325 325 324 325 327 328 328 325 324 323 321 320 318 314 311 309 306 302 296 291 288 288 289 291
317 319 319 316 314 310 306 309 311 308 314 324 325 323 322 322 324 324 323 321 315 309 313 324 329 296 325 342 325 327 352 354 357 357 351 349 351 354 354 353 351 350 348 347 346 345 343 340 337 335 334 332 332 331 329 328 328 327 326 325 324 323 324 323 322 323 324 325 325 323 322 321 321 320 318 315 312 310 306 303 298 292 288 286 286 287
313 316 318 315 312 308 303 306 308 306 312 321 323 323 323 322 324 321 319 313 301 302 308 311 302 284 311 331 322 313 331 343 351 353 353 356 355 354 354 352 351 351 349 348 346 344 342 339 335 333 331 329 329 328 326 325 325 324 324 324 323 323 323 322 320 321 321 322 322 321 320 319 319 319 317 315 312 310 307 303 299 293 288 285 284 284
309 312 316 313 310 306 301 304 307 305 311 319 322 323 322 321 321 317 313 305 296 305 303 295 306 281 299 317 315 302 314 329 339 345 354 1 358 355 355 353 353 351 348 346 343 341 338 334 331 329 327 326 325 324 322 322 322 322 322 322 322 322 322 321 320 319 320 320 320 319 318 317 317 317 316 315 313 310 306 303 300 294 288 284 283 282
306 310 314 311 307 303 299 303 306 303 309 319 322 323 321 320 320 315 307 301 299 303 286 273 295 284 304 312 297 304 313 317 329 339 352 358 356 358 357 354 352 349 346 343 339 337 333 330 328 325 323 321 319 319 318 319 319 318 319 319 320 321 321 320 319 318 319 319 319 318 317 316 316 316 315 314 313 309 306 303 300 295 289 284 281 280
303 310 311 308 306 300 298 302 303 302 310 319 322 322 322 320 319 311 297 300 306 301 257 240 276 305 309 306 293 310 315 316 326 337 349 351 353 356 355 353 350 348 344 341 337 334 331 328 325 322 319 317 315 314 314 315 315 315 315 315 316 317 318 318 318 318 319 319 318 317 316 315 315 314 314 314 312 309 306 303 300 296 291 285 281 279
304 308 307 307 305 299 300 302 301 302 310 320 324 324 324 321 319 303 279 284 289 287 250 240 291 300 268 285 313 316 319 325 327 335 344 345 346 345 344 347 347 344 341 338 335 333 330 327 325 321 319 317 313 311 309 309 310 310 311 311 312 314 315 315 315 316 317 318 318 317 316 314 314 313 313 312 311 309 305 302 299 296 292 287 281 278
301 303 304 306 304 302 304 303 303 303 308 320 323 326 329 327 332 314 251 244 237 260 269 260 291 289 271 285 313 315 331 338 333 336 341 343 343 339 337 340 342 341 338 336 333 331 329 328 326 323 321 319 315 311 307 305 305 306 307 307 307 309 312 312 313 314 314 315 315 315 314 314 313 312 312 311 310 308 305 302 299 296 293 288 283 278
300 303 306 306 305 309 309 307 304 301 307 317 320 327 336 348 14 313 272 286 271 276 287 279 281 285 281 297 318 313 335 343 343 343 342 343 342 336 333 335 337 337 336 334 332 332 331 330 329 326 323 320 318 315 311 307 305 304 304 304 304 306 308 308 310 311 312 312 312 311 311 312 312 313 312 311 309 307 305 302 299 296 294 290 285 279
296 299 306 308 308 312 312 309 304 301 307 314 314 320 319 304 248 273 253 259 279 291 292 282 270 267 282 309 314 306 333 346 348 346 342 340 337 330 327 329 332 333 333 332 332 332 332 332 331 329 324 320 318 317 315 313 310 307 304 303 302 303 304 305 307 309 309 309 309 308 308 309 310 312 312 311 308 306 304 302 299 297 294 291 286 281
286 285 302 309 309 312 312 308 305 306 309 311 308 308 303 286 267 257 256 272 278 304 295 271 260 271 292 311 308 289 329 345 346 343 340 336 331 324 321 324 329 330 331 331 332 332 333 333 332 330 327 322 319 317 316 315 312 310 307 304 303 303 303 304 305 305 305 305 305 305 306 307 308 310 311 311 308 305 303 301 299 296 294 291 287 282
278 281 302 309 310 312 312 309 307 307 305 302 303 301 293 288 280 261 268 280 273 299 284 265 281 289 300 317 311 270 319 339 341 337 335 331 325 320 320 325 329 330 331 331 332 333 333 333 332 331 328 325 322 321 320 318 315 312 309 307 305 305 305 304 303 302 301 301 302 303 305 306 306 308 309 310 308 306 303 300 298 295 293 291 288 283
282 290 301 308 310 312 314 312 308 306 304 299 298 297 294 289 280 270 279 305 338 278 259 256 282 291 295 310 316 297 303 325 332 329 328 324 320 320 323 328 331 331 332 333 333 333 333 332 331 330 328 326 325 324 324 323 321 318 316 312 310 308 306 304 302 301 298 297 298 300 302 303 305 307 308 309 309 307 304 300 297 294 292 290 288 284
292 298 304 309 311 313 315 312 309 309 308 302 296 295 293 277 266 272 265 304 322 289 278 252 266 284 286 289 318 321 311 322 329 327 324 321 320 324 329 332 333 333 333 333 333 333 332 331 330 329 328 327 327 326 325 323 322 322 321 319 316 313 309 305 303 300 298 296 296 297 298 300 303 306 307 308 308 308 305 301 296 293 290 289 287 284
297 297 298 307 311 313 313 311 310 310 308 304 297 293 288 274 267 264 244 255 265 255 294 285 251 282 289 296 315 324 326 330 332 328 324 321 322 329 333 334 334 334 333 333 332 331 331 330 329 328 328 328 328 327 324 322 319 318 318 317 317 315 313 309 304 300 299 296 295 295 296 298 301 303 306 307 308 308 307 302 295 292 289 288 287 285
297 289 288 302 310 311 311 311 309 307 305 299 293 290 287 280 269 268 265 259 256 238 255 289 275 281 290 305 313 322 334 333 331 327 320 319 325 331 334 335 334 333 332 332 331 330 330 329 328 327 327 328 328 327 325 322 319 316 314 313 312 312 312 310 306 301 299 297 294 294 295 297 299 301 304 306 306 307 307 302 296 292 288 287 287 285
297 290 288 297 306 310 310 311 309 307 306 300 296 294 291 285 271 269 273 257 249 241 244 247 283 284 295 308 314 324 334 331 329 322 316 319 328 333 335 334 333 332 331 331 330 329 329 327 326 327 328 329 329 328 328 326 323 320 317 314 310 309 310 309 307 303 300 297 295 294 294 295 296 299 302 304 304 306 306 303 298 293 289 286 285 284
298 294 291 295 304 311 312 312 311 309 310 308 304 300 297 291 277 266 265 268 255 243 257 260 255 286 299 312 316 325 331 328 323 317 315 325 331 333 334 333 332 331 330 330 329 328 327 326 326 328 330 331 330 330 329 328 327 325 323 319 314 311 310 309 307 305 303 300 298 296 295 294 295 298 300 301 303 304 305 304 300 294 290 287 284 284
301 297 295 299 306 310 311 315 316 313 312 309 306 304 300 294 289 279 274 278 272 250 259 261 245 284 299 312 316 324 330 324 319 318 323 330 332 332 332 331 331 330 329 329 328 327 326 327 329 331 331 331 330 330 329 328 328 327 325 324 320 316 313 311 309 307 306 304 301 298 297 296 296 296 299 300 300 301 303 304 301 295 290 286 284 283
298 294 294 302 311 317 317 318 318 316 313 309 308 308 304 300 297 290 281 278 273 262 258 238 256 282 294 308 318 329 331 322 321 325 331 333 332 331 331 330 330 329 327 328 327 326 328 329 331 332 331 330 329 328 328 327 327 326 325 324 322 319 317 315 312 310 309 308 305 303 301 300 298 296 297 298 297 299 302 303 301 296 289 285 284 283
293 291 292 293 292 295 300 305 308 309 308 305 306 307 305 302 297 292 287 273 264 268 252 234 266 288 301 316 328 336 331 323 327 332 333 333 330 329 330 329 328 328 327 327 326 327 329 331 331 331 330 329 328 327 326 325 325 325 325 324 323 320 318 316 314 313 313 312 309 307 305 304 301 297 295 295 295 297 300 302 301 296 289 285 283 283
291 293 296 292 284 287 297 303 303 302 301 301 304 305 303 301 296 292 283 267 269 277 268 265 281 297 311 327 336 335 328 326 331 333 332 331 329 328 328 328 327 327 327 327 327 329 331 331 330 329 328 327 326 325 324 324 324 324 324 325 324 322 320 317 314 313 315 314 312 310 309 306 301 297 295 294 293 295 298 301 301 297 291 286 283 283
293 295 299 299 297 300 305 307 305 303 302 303 306 308 306 301 295 288 280 279 286 283 278 292 304 305 315 331 336 331 330 331 331 331 330 329 327 326 326 327 327 326 326 326 328 330 331 330 328 327 325 324 323 323 322 322 323 323 324 325 325 323 322 320 317 314 312 312 313 312 309 305 301 297 294 292 292 293 296 300 301 298 293 287 283 282
294 296 300 302 304 306 307 309 310 308 307 310 313 313 310 303 296 291 292 299 297 280 286 312 318 311 320 333 333 329 332 330 328 328 327 325 325 325 326 327 325 325 325 326 328 330 330 328 326 325 323 323 322 322 322 322 322 323 324 324 324 323 322 321 319 316 311 309 311 311 308 303 300 296 293 292 291 292 295 298 300 299 293 287 282 281
295 296 301 304 306 308 310 313 316 315 315 316 317 317 316 312 310 313 321 324 310 299 310 322 321 318 328 333 329 330 330 326 325 325 324 323 324 325 326 325 324 325 326 328 329 329 328 327 325 323 321 322 322 322 322 322 322 322 323 323 323 323 322 320 319 319 314 308 306 307 306 302 299 295 292 291 290 290 293 295 297 297 293 286 281 280
296 295 300 305 305 308 314 319 321 320 317 316 318 327 337 339 340 339 339 336 327 322 326 327 321 322 330 332 328 327 325 322 323 322 322 324 324 325 326 325 325 327 327 328 327 326 326 326 324 321 321 321 322 322 323 323 322 321 321 321 321 321 321 319 318 318 316 309 302 302 303 300 297 294 291 290 289 288 289 292 295 296 291 285 280 279
299 296 301 306 303 306 316 321 321 318 315 316 337 354 345 349 350 346 344 340 334 332 332 327 321 323 331 331 325 323 322 322 322 322 323 324 324 325 326 326 327 328 327 326 325 325 325 325 323 322 321 322 323 323 323 323 322 321 320 320 320 320 319 318 316 316 316 311 302 299 300 299 296 292 290 288 286 286 287 289 294 294 290 284 279 278
303 299 302 305 298 303 314 319 319 319 316 326 3 349 345 351 348 343 340 336 334 335 330 322 319 325 329 326 322 322 324 324 323 323 324 324 325 327 327 327 327 326 325 325 326 327 327 325 324 323 322 323 325 325 325 325 324 323 321 320 319 319 317 317 316 314 315 312 305 299 300 299 295 291 288 285 284 285 285 288 294 294 289 283 279 277
307 304 304 301 291 299 313 320 321 321 325 352 351 351 351 348 345 342 336 331 331 330 323 316 318 324 323 321 322 323 323 323 322 323 324 326 328 328 328 327 326 325 326 328 329 329 327 326 326 324 323 324 326 327 326 325 323 322 320 319 319 318 316 316 315 314 312 310 306 301 300 298 294 288 285 283 283 284 285 289 294 292 288 283 279 278
310 308 304 300 294 299 314 328 332 318 327 334 337 348 346 340 339 335 327 325 329 326 316 309 313 318 320 322 323 322 322 322 321 323 327 329 329 328 327 327 327 329 330 330 329 327 327 327 327 325 323 324 325 325 325 324 323 322 321 320 319 318 317 315 315 313 310 307 304 301 299 296 291 286 282 282 283 284 285 290 292 290 286 282 280 278
316 314 308 306 304 302 314 332 325 307 320 323 317 333 334 331 334 330 322 326 333 324 296 302 315 320 323 324 323 324 324 322 322 325 329 329 328 328 329 329 330 330 329 329 328 327 328 328 327 323 322 322 322 324 326 327 327 325 324 323 321 319 317 316 315 313 309 304 301 300 298 295 291 286 282 283 284 283 284 288 289 286 284 281 279 277
322 317 313 311 307 304 306 307 307 314 316 266 317 335 335 332 336 333 325 329 336 313 291 315 321 323 325 325 326 327 325 322 323 327 330 329 328 329 330 329 329 328 327 327 326 326 327 327 325 323 323 322 320 322 326 328 327 326 325 324 321 320 319 318 317 315 311 305 300 300 299 296 292 287 284 285 284 281 281 284 285 284 282 280 277 276
325 320 318 312 303 306 311 311 317 323 275 244 319 330 330 330 334 332 326 328 332 311 315 322 324 325 327 327 327 326 325 325 326 327 328 328 327 327 327 326 325 324 324 325 325 326 328 328 326 325 325 323 319 321 324 325 326 326 325 323 324 323 322 323 322 319 314 309 305 303 301 297 294 290 287 285 282 277 277 280 282 282 281 278 276 275
326 324 323 318 310 312 314 308 300 294 287 300 310 316 322 328 330 328 325 323 320 319 322 324 325 326 327 326 326 327 329 330 327 325 327 327 325 324 324 324 324 325 327 328 329 330 331 330 328 328 326 320 318 319 322 323 325 326 325 325 327 325 320 322 325 323 318 314 309 305 301 297 294 292 287 284 278 273 274 277 279 281 279 277 274 274
329 332 332 333 334 326 313 296 287 300 306 301 301 311 322 325 327 329 325 317 320 323 324 324 325 326 327 326 327 329 330 329 325 324 325 324 322 323 325 327 329 331 332 332 332 332 331 329 328 327 322 316 316 318 321 324 326 327 326 326 327 320 312 317 324 324 320 316 312 308 305 299 295 292 288 283 276 270 270 274 277 279 277 275 273 272
334 339 337 339 339 331 316 301 303 310 305 293 302 316 323 325 327 330 320 315 320 322 323 324 325 327 328 328 328 328 327 326 324 323 323 323 324 327 329 331 331 331 331 331 330 330 328 326 324 321 317 316 317 320 323 325 326 326 326 326 322 312 309 316 323 324 321 317 313 310 308 303 297 293 289 284 276 268 267 271 275 277 275 273 271 271
341 338 336 341 336 327 319 311 312 317 310 305 313 321 327 329 329 322 316 317 319 321 323 324 326 328 330 329 328 327 326 325 325 323 324 325 328 329 330 330 329 328 328 328 328 326 324 322 320 319 319 321 323 325 327 328 326 325 324 320 314 310 311 317 322 321 320 318 313 310 309 306 301 296 291 286 277 266 264 268 272 274 273 271 270 270
336 334 338 343 336 327 323 320 320 322 318 317 321 325 329 331 324 317 317 319 321 323 325 325 326 329 331 329 327 326 326 326 325 325 325 327 328 329 329 329 329 327 326 327 326 324 322 321 321 323 324 327 328 329 329 329 326 324 320 315 312 313 315 319 320 320 319 318 315 312 310 307 304 299 293 287 276 265 262 266 271 272 271 270 269 269
336 343 345 344 340 329 320 315 312 314 317 321 325 326 326 325 321 319 321 322 323 325 325 325 326 328 329 328 326 326 326 326 325 325 326 327 329 330 330 329 329 327 326 326 326 325 325 325 326 327 329 330 331 330 329 327 325 322 319 315 314 316 317 319 320 320 319 318 316 314 312 309 306 301 295 286 274 264 260 263 269 271 270 268 268 268
332 340 337 333 326 315 309 309 313 316 318 321 323 322 321 322 322 323 325 325 324 325 326 325 325 326 328 329 327 326 327 326 325 326 327 327 329 330 330 329 329 328 327 327 327 328 328 328 329 329 330 331 332 332 331 330 327 323 321 320 319 319 320 321 322 321 320 318 316 315 314 312 308 303 295 284 271 261 257 259 265 268 268 267 267 268
313 316 320 318 315 314 314 314 316 317 318 321 323 323 323 325 325 324 324 324 325 326 327 327 327 328 330 330 327 325 326 326 325 326 327 328 330 331 331 330 330 329 329 329 329 329 329 329 330 330 330 332 333 334 333 333 331 327 325 323 322 322 323 323 323 321 320 319 317 316 315 313 309 303 294 280 266 257 254 257 262 265 266 265 265 267
311 310 318 321 321 322 324 322 320 320 322 325 326 326 326 326 326 325 325 327 329 330 329 328 328 328 328 327 326 326 325 325 326 327 329 331 332 332 332 331 331 331 331 330 330 329 330 331 332 332 332 332 333 334 334 334 333 331 328 325 324 324 324 323 322 321 320 319 318 318 316 312 307 302 292 277 263 255 253 255 259 262 263 262 262 266
326 322 327 327 323 324 325 324 324 324 325 326 327 326 325 326 327 329 332 333 332 331 330 329 328 326 325 325 327 326 325 326 329 330 332 333 332 332 332 332 332 332 332 332 332 332 333 334 334 333 332 332 333 333 334 334 334 333 329 327 327 326 325 323 321 321 321 319 319 319 317 311 305 300 291 274 259 252 249 250 255 258 259 259 260 264
330 328 331 328 325 328 329 328 326 325 324 327 329 329 329 330 331 333 335 334 333 332 330 327 323 322 323 325 326 326 326 329 332 332 332 332 333 333 333 333 333 333 333 334 335 335 335 335 335 334 333 333 333 333 334 334 334 333 330 329 328 326 324 322 322 322 321 319 319 319 316 310 304 298 287 269 255 247 244 246 250 254 255 255 257 260
330 331 333 331 330 331 331 330 329 327 326 330 332 332 332 333 332 332 334 334 332 330 326 321 320 320 321 324 326 327 328 331 333 333 332 332 333 334 333 333 334 335 336 336 336 336 337 337 336 335 334 334 334 335 335 335 334 332 331 330 328 327 325 323 323 323 322 320 319 319 316 311 304 297 283 263 250 244 241 242 247 250 252 252 254 257
336 336 335 333 331 329 328 329 330 329 328 330 332 332 333 333 330 330 332 331 327 323 320 319 319 320 322 325 327 328 330 332 333 332 332 333 334 334 334 334 335 336 337 337 337 338 339 338 338 337 336 336 336 337 336 335 334 332 332 332 331 329 327 324 323 323 323 321 319 318 315 311 304 295 279 259 247 242 239 240 243 246 248 249 251 255